User: anonymous   Login
Location: Unspecified
(0.0000°N, 0.0000°E)
Time: 23:22:54
(UTC+00:00)
Language:

STARLINK-3677 - Orbit

View from above orbital plane
View from above orbital plane
View from above satellite
View from above satellite

Ground track
Ground track

The orbit is defined by the following mean orbital elements,

1 51970U          26145.43488380 +.00000000 +00000-0 +22817-4 0 00005
2 51970  53.1607  40.2409 0001134  90.4769 269.6361 15.30190878    04
Epoch (UTC): 25 May 2026 10:26:13
Eccentricity: 0.0001134
inclination: 53.1607°
perigee height: 474 km
apogee height: 476 km
right ascension of ascending node: 40.2409°
argument of perigee: 90.4769°
revolutions per day: 15.30190878
mean anomaly at epoch: 269.6361°

The dashed part of the orbit path shows where the satellite is in the earth's shadow,  

DLR